GEFSCGP_con_probscp_114.txt.gz
Probability
0 0 0 0 0 0 0 0 0 0 1 1 1 3 6 6 9 19 27 31 32 29 24 21 22 22 23 24 26 26 26 25 20 16 14 13 10 8 6 5 4 3 3 5
0 0 0 0 0 0 0 0 0 0 0 1 1 3 6 5 7 15 21 25 26 23 18 16 18 19 20 22 22 22 23 21 17 13 11 10 9 7 5 6 6 4 3 3
0 0 0 0 0 0 0 0 0 0 0 0 1 3 4 4 6 10 13 16 18 17 14 12 12 13 14 17 20 21 21 18 13 8 7 7 6 5 6 8 11 8 4 3
0 0 0 0 0 0 0 0 0 0 0 0 1 2 3 3 4 6 8 9 11 12 11 10 9 9 9 12 16 21 21 17 10 7 7 7 5 4 6 11 15 14 10 8
0 0 0 0 0 0 0 0 0 0 0 0 0 1 2 2 3 3 4 5 7 8 8 9 9 9 8 9 13 19 22 19 12 8 8 6 4 3 6 11 15 15 14 13
0 0 0 0 0 0 0 0 0 0 0 0 0 0 1 1 1 2 2 3 5 6 6 7 9 10 9 9 11 17 22 20 12 8 7 6 6 5 7 10 11 12 13 14
0 0 0 0 0 0 0 0 0 0 1 0 0 0 0 0 0 1 2 3 5 5 6 7 8 9 8 6 7 13 19 18 11 8 7 7 8 7 6 7 7 7 8 9
0 0 0 0 0 0 0 0 0 0 0 0 0 1 0 0 0 0 2 5 5 5 6 6 7 6 4 2 4 9 17 19 15 10 8 8 8 7 5 5 4 4 4 4
0 0 0 0 0 0 0 0 0 0 0 0 0 0 0 0 0 0 2 5 6 5 4 4 4 3 2 2 5 10 17 21 17 11 9 8 8 6 4 3 3 2 2 2
0 0 0 0 0 0 0 0 0 0 0 0 0 0 0 0 0 0 1 4 5 4 3 3 2 2 2 4 6 11 17 18 13 9 6 5 5 4 3 3 3 3 3 3
1 0 0 0 0 0 0 0 0 0 0 0 0 0 0 0 0 0 0 1 2 3 3 3 3 4 3 3 6 10 12 11 8 5 4 3 3 3 3 3 3 3 3 4
1 0 0 0 0 0 0 0 0 0 0 0 0 0 0 0 0 0 0 0 1 2 3 4 5 4 2 1 3 5 6 5 4 3 3 3 3 3 3 3 3 3 4 4
1 1 0 0 0 0 0 0 0 0 0 0 0 0 0 0 0 0 0 0 0 2 4 6 6 4 3 2 2 2 2 2 2 3 3 3 4 4 4 2 2 3 3 4
1 1 0 0 0 0 0 0 0 0 0 0 0 0 0 0 0 0 0 0 1 2 5 7 8 7 6 6 4 2 1 2 3 3 3 3 4 4 4 3 3 3 3 3
1 1 0 0 0 0 0 0 0 0 0 0 0 0 0 0 0 0 0 0 1 3 5 7 9 9 8 7 5 2 2 3 3 3 3 3 4 4 5 5 4 3 3 3
1 0 0 0 0 0 0 0 0 0 0 0 0 0 0 0 0 1 1 0 1 3 5 8 10 9 7 5 4 3 3 4 4 4 4 5 4 4 5 5 4 4 4 4
1 1 0 0 0 0 0 0 0 0 0 0 0 0 0 0 0 1 2 1 1 3 6 10 11 10 7 4 3 4 4 5 6 6 6 6 6 6 5 5 5 5 6 6
2 2 1 0 0 0 0 0 0 0 0 0 0 0 0 0 0 1 2 2 2 4 8 11 11 9 6 4 4 5 6 6 6 6 6 6 6 6 6 6 6 7 8 9
2 2 1 0 0 0 0 0 0 0 0 0 0 0 0 0 0 0 2 3 4 6 9 10 8 6 4 3 4 6 6 7 7 7 7 7 7 6 6 6 7 8 9 10
2 2 1 0 0 0 0 0 0 0 0 0 0 0 0 0 0 1 3 5 6 8 10 9 6 5 4 4 5 7 7 8 8 9 9 8 7 7 6 7 8 9 9 9
1 1 0 0 0 0 0 1 2 2 1 0 0 0 0 0 0 1 4 8 10 11 11 9 8 8 6 5 6 8 9 9 9 10 10 9 8 7 6 7 8 9 9 8
0 0 1 1 1 1 2 3 5 5 2 1 0 0 0 0 1 3 8 13 15 14 11 8 9 11 10 9 9 9 10 10 10 10 10 10 9 8 7 7 8 9 9 8
0 1 2 2 2 3 4 4 4 4 3 2 1 1 2 3 5 9 14 18 19 16 12 8 7 11 14 13 11 10 10 10 9 8 9 10 10 10 9 8 7 7 7 6
0 1 2 2 2 3 3 3 2 2 3 3 2 3 5 6 8 13 20 24 24 20 16 12 12 14 16 16 14 13 11 10 8 7 8 9 9 9 10 9 6 5 4 4
1 1 2 4 5 5 4 4 2 2 2 2 1 3 4 5 8 15 24 31 30 26 22 22 22 22 21 19 18 16 13 12 10 9 9 8 5 6 7 7 5 3 3 3
2 3 5 8 10 9 8 5 3 2 1 0 0 1 3 4 8 14 24 34 35 30 28 29 29 28 25 22 20 18 16 14 14 13 11 7 3 3 5 6 4 2 1 2

GEFSCGP_con_probscp_120.txt.gz
Probability
0 0 0 0 0 0 0 0 0 0 0 0 0 2 4 7 11 15 17 17 15 12 11 12 14 16 14 10 6 4 3 2 1 2 2 2 1 0 0 0 0 0 0 0
0 0 0 0 0 0 0 0 0 0 0 0 1 2 4 6 9 13 16 17 16 13 11 10 12 12 11 9 7 5 3 1 1 1 1 1 0 0 0 0 0 0 0 0
0 0 0 0 0 0 0 0 0 0 0 0 1 1 2 4 6 9 12 14 14 12 9 8 7 7 6 5 4 3 1 0 0 0 0 0 0 0 0 0 0 0 0 0
0 0 0 0 0 0 0 0 0 0 0 0 0 1 2 3 3 4 7 10 10 9 7 5 4 4 4 2 1 1 0 0 0 0 0 0 0 0 0 0 0 0 0 0
0 0 0 0 0 0 0 0 0 0 0 0 0 1 1 1 1 1 4 7 8 6 5 4 3 4 3 1 0 0 0 0 0 0 0 0 0 0 0 0 0 0 0 0
0 0 0 0 0 0 0 0 0 0 0 0 0 0 0 0 0 0 2 5 7 6 4 3 2 2 2 1 0 0 0 0 0 0 0 0 0 0 0 0 0 0 0 0
0 0 0 0 0 0 0 0 0 0 0 0 0 0 0 0 0 0 0 2 4 4 3 2 1 0 0 0 0 0 0 0 0 0 0 0 0 0 0 0 0 0 0 0
0 0 0 0 0 0 0 0 0 0 0 0 0 0 0 0 0 0 0 0 1 2 1 1 0 0 0 0 0 0 0 0 0 0 0 0 0 0 0 0 0 0 0 0
0 0 0 0 0 0 0 0 0 0 0 0 0 0 0 0 0 0 0 0 0 0 0 0 0 0 0 0 0 0 0 0 0 0 0 0 0 0 0 0 0 0 0 0
0 0 0 0 0 0 0 0 0 0 0 0 0 0 0 0 0 0 0 0 0 0 0 0 0 0 0 0 0 0 0 0 0 0 0 0 0 0 0 0 0 0 0 0
0 0 0 0 0 0 0 0 0 0 0 0 0 0 0 0 0 0 0 0 0 0 0 0 0 0 0 0 0 0 0 0 0 0 0 0 0 0 0 0 0 0 0 0
0 0 0 0 0 0 0 0 0 0 0 0 0 0 0 0 0 0 0 0 0 0 0 0 0 0 0 0 0 0 0 0 0 0 0 0 0 0 0 0 0 0 0 0
0 0 0 0 0 0 0 0 0 0 0 0 0 0 0 0 0 0 0 0 0 0 0 0 0 0 0 0 0 0 0 0 0 0 0 0 0 0 0 0 0 0 0 0
0 0 0 0 0 0 0 0 0 0 0 0 0 0 0 0 0 0 0 0 0 0 0 0 0 0 0 0 0 0 0 0 0 0 0 0 0 0 0 0 0 0 0 0
0 0 0 0 0 0 0 0 0 0 0 0 0 0 0 0 0 0 0 0 0 0 0 0 0 0 0 0 0 0 0 0 0 0 0 0 0 0 0 0 0 0 0 0
0 0 0 0 0 0 0 0 0 0 0 0 0 0 0 0 0 0 0 0 0 0 0 0 0 0 0 0 0 0 0 0 0 0 0 0 0 0 0 0 0 0 0 0
0 0 0 0 0 0 0 0 0 0 0 0 0 0 0 0 0 0 0 0 0 0 0 0 0 0 0 0 0 0 0 0 0 0 0 0 0 0 0 0 0 0 0 0
0 0 0 0 0 0 0 0 0 0 0 0 0 0 0 0 0 0 0 0 0 0 0 0 0 0 0 0 0 0 0 0 0 0 0 0 0 0 0 0 0 0 0 0
0 0 0 0 0 0 0 0 0 0 0 0 0 0 0 0 0 0 0 0 0 0 0 0 0 0 0 0 0 0 0 0 0 0 0 0 0 0 0 0 0 0 0 0
0 0 0 0 0 0 0 0 0 0 0 0 0 0 0 0 0 0 0 0 0 0 0 0 0 0 0 0 0 0 0 0 0 0 0 0 0 0 0 0 0 0 0 0
0 0 0 0 0 0 0 0 0 0 0 0 0 0 0 0 0 0 0 0 0 0 0 0 0 0 0 0 0 0 0 0 0 0 0 0 0 0 0 0 0 0 0 0
0 0 0 0 0 0 0 0 0 0 0 0 0 1 1 1 0 0 0 0 0 0 0 0 0 0 0 0 0 0 0 0 1 0 0 0 0 0 0 0 0 0 0 0
0 0 0 0 0 0 0 0 0 0 0 0 0 2 2 1 0 0 0 0 0 0 0 0 0 0 0 0 0 0 0 0 0 0 0 0 0 0 0 0 0 0 0 0
0 0 0 0 0 0 0 0 0 0 0 0 0 1 1 1 0 0 0 0 0 0 0 0 0 0 0 0 0 0 0 0 0 0 0 0 0 0 0 0 0 0 0 0
0 0 0 0 0 0 0 0 0 0 0 0 0 0 0 0 0 0 0 0 0 0 0 0 0 0 0 0 0 0 0 0 0 0 0 0 0 0 0 0 0 0 0 0
0 0 0 0 0 0 0 0 0 0 0 0 0 0 0 0 0 0 0 0 0 0 0 0 0 0 0 0 0 0 0 0 0 0 0 0 0 0 0 0 0 0 0 0

GEFSCGP_con_probscp_126.txt.gz
Probability
0 0 0 0 0 0 0 0 0 0 0 0 0 2 5 6 5 4 3 4 7 9 10 10 10 7 3 2 1 0 0 0 0 0 0 0 0 0 0 0 1 2 2 1
0 0 0 0 0 0 0 0 0 0 0 0 0 2 3 4 5 3 2 3 6 8 9 9 8 4 2 2 1 0 0 0 0 0 0 0 0 0 0 0 1 1 1 0
0 0 0 0 0 0 0 0 0 0 0 0 0 1 1 2 2 2 2 3 5 7 8 7 5 2 1 2 1 0 0 0 0 0 0 0 0 0 0 0 0 0 0 0
0 0 0 0 0 0 0 0 0 0 0 0 0 0 0 0 0 1 2 4 6 7 6 5 4 2 1 1 1 0 0 0 0 0 0 0 0 0 0 0 0 0 0 0
0 0 0 0 0 0 0 0 0 0 0 0 0 0 0 0 0 0 1 4 6 6 5 4 3 2 1 0 0 0 0 0 0 0 0 0 0 0 0 0 0 0 0 0
0 0 0 0 0 0 0 0 0 0 0 0 0 0 0 0 0 0 1 2 4 5 4 3 2 1 0 0 0 0 0 0 0 0 0 0 0 0 0 0 0 0 0 0
0 0 0 0 0 0 0 0 0 0 0 0 0 0 0 0 0 0 0 2 3 3 3 2 1 0 0 0 0 0 0 0 0 0 0 0 0 0 0 0 0 0 0 0
0 0 0 0 0 0 0 0 0 0 0 0 0 0 0 0 0 0 0 2 3 3 2 1 0 0 0 0 0 0 0 0 0 0 0 0 0 0 0 0 0 0 0 0
0 0 0 0 0 0 0 0 0 0 0 0 0 0 0 0 0 0 0 1 2 2 2 1 0 0 0 0 0 0 0 0 0 0 0 0 0 0 0 0 0 0 0 0
0 0 0 0 0 0 0 0 0 0 0 0 0 0 0 0 0 0 0 0 1 1 1 0 0 0 0 0 0 0 0 0 0 0 0 0 0 0 0 0 0 0 0 0
0 0 0 0 0 0 0 0 0 0 0 0 0 0 0 0 0 0 0 0 0 0 0 0 0 0 0 0 0 0 0 0 0 0 0 0 0 0 0 0 0 0 0 0
0 0 0 0 0 0 0 0 0 0 0 0 0 0 0 0 0 0 0 0 0 0 0 0 0 0 0 0 0 0 0 0 0 0 0 0 0 0 0 0 0 0 0 0
0 0 0 0 0 0 0 0 0 0 0 0 0 0 0 0 0 0 0 0 0 0 0 0 0 0 0 0 0 0 0 0 0 0 0 0 0 0 0 0 0 0 0 0
0 0 0 0 0 0 0 0 0 0 0 0 0 0 0 0 0 0 0 0 0 0 0 0 0 0 0 0 0 0 0 0 0 0 0 0 0 0 0 0 0 0 0 0
0 0 0 0 0 0 0 0 0 0 0 0 0 0 0 0 0 0 0 0 0 0 0 0 0 0 0 0 0 0 0 0 0 0 0 0 0 0 0 0 0 0 0 0
0 0 0 0 0 0 0 0 0 0 0 0 0 0 0 0 0 0 0 0 0 0 0 0 0 0 0 0 0 0 0 0 0 0 0 0 0 0 0 0 0 0 0 0
0 0 0 0 0 0 0 0 0 0 0 0 0 0 0 0 0 0 0 0 0 0 0 0 0 0 0 0 0 0 0 0 0 0 0 0 0 0 0 0 0 0 0 0
0 0 0 0 0 0 0 0 0 0 0 0 0 0 0 0 0 0 0 0 0 0 0 0 0 0 0 0 0 0 0 0 0 0 0 0 0 0 0 0 0 0 0 0
0 0 0 0 0 0 0 0 0 0 0 0 0 0 0 0 0 0 0 0 0 0 0 0 0 0 0 0 0 0 0 0 0 0 0 0 0 0 0 0 0 0 0 0
0 0 0 0 0 0 0 0 0 0 0 0 0 0 0 0 0 0 0 0 0 0 0 0 0 0 0 0 0 0 0 0 0 0 0 0 0 0 0 0 0 0 0 0
0 0 0 0 0 0 0 0 0 0 0 0 0 0 0 0 0 0 0 0 0 0 0 0 0 0 0 0 0 0 0 0 0 0 0 0 0 0 0 0 0 0 0 0
0 0 0 0 0 0 0 0 0 0 0 0 0 0 0 0 0 0 0 0 0 0 0 0 0 0 0 0 0 0 0 0 0 0 0 0 0 0 0 0 0 0 0 0
0 0 0 0 0 0 0 0 0 0 0 0 0 0 0 0 0 0 0 0 0 0 0 0 0 0 0 0 0 0 0 0 0 0 0 0 0 0 0 0 0 0 0 0
0 0 0 0 0 0 0 0 0 0 0 0 0 0 0 0 0 0 0 0 0 0 0 0 0 0 0 0 0 0 0 0 0 0 0 0 0 0 0 0 0 0 0 0
0 0 0 0 0 0 0 0 0 0 0 0 0 0 0 0 0 0 0 0 0 0 0 0 0 0 0 0 0 0 0 0 0 0 0 0 0 0 0 0 0 0 0 0
0 0 0 0 0 0 0 0 0 0 0 0 0 0 0 0 0 0 0 0 0 0 0 0 0 0 0 0 0 0 0 0 0 0 0 0 0 0 0 0 0 0 0 0

GEFSCGP_con_probscp_132.txt.gz
Probability
0 0 0 0 0 0 0 0 0 0 0 0 0 0 1 2 3 5 5 5 7 10 11 11 13 18 18 17 19 20 17 14 13 10 7 7 7 4 1 0 0 0 0 0
0 0 0 0 0 0 0 0 0 0 0 0 0 0 0 1 3 5 6 6 7 8 9 10 12 15 16 16 17 18 15 12 10 9 8 7 6 4 1 0 0 0 0 0
0 0 0 0 0 0 0 0 0 0 0 0 0 0 0 1 3 6 7 7 6 6 6 7 9 12 13 13 14 14 13 11 9 8 7 6 5 3 1 0 0 0 0 0
0 0 0 0 0 0 0 0 0 0 0 0 0 0 0 1 3 5 6 6 6 5 6 6 8 10 11 11 11 10 11 11 9 6 4 3 3 2 0 0 0 0 0 0
0 0 0 0 0 0 0 0 0 0 0 0 0 0 0 0 1 3 4 4 5 7 8 8 9 9 9 9 9 9 9 9 7 4 2 1 1 0 0 0 0 0 0 0
0 0 0 0 0 0 0 0 0 0 0 0 0 0 0 0 0 1 3 4 6 8 9 9 9 9 8 9 8 7 6 5 3 1 1 0 0 0 0 0 0 0 0 0
0 0 0 0 0 0 0 0 0 0 0 0 0 0 0 0 0 1 2 4 5 6 8 8 8 7 8 8 8 6 5 2 1 0 0 0 0 0 0 0 0 0 0 0
0 0 0 0 0 0 0 0 0 0 0 0 0 0 0 0 0 1 2 3 3 4 6 6 6 6 6 7 8 7 5 2 1 0 0 0 0 0 0 0 0 0 0 0
0 0 0 0 0 0 0 0 0 0 0 0 0 0 0 0 0 1 2 2 2 3 4 4 4 4 4 5 6 5 3 2 1 0 0 0 0 0 0 0 0 0 0 0
0 0 0 0 0 0 0 0 0 0 0 0 0 0 0 0 0 1 2 2 1 2 3 3 3 3 3 4 3 2 1 1 0 0 0 0 0 0 0 0 0 0 0 0
0 0 0 0 0 0 0 0 0 0 0 0 0 0 0 0 0 1 2 2 2 2 3 3 3 3 3 3 2 1 0 0 0 1 1 1 0 0 0 0 0 1 1 1
0 0 0 0 0 0 0 0 0 0 0 0 0 0 0 0 0 1 3 3 2 3 3 3 3 2 1 1 1 0 0 0 0 1 1 1 1 1 1 1 1 2 2 2
0 0 0 0 0 0 0 0 0 0 0 0 0 0 0 0 1 2 3 3 3 3 3 3 3 1 0 0 0 0 0 0 0 0 1 1 2 2 2 2 2 2 2 1
1 1 1 0 0 0 0 0 0 0 0 0 0 0 0 0 1 2 3 3 2 2 2 3 3 2 1 1 0 0 0 0 0 0 1 2 3 3 3 3 2 1 1 0
2 1 1 0 0 0 0 0 0 0 0 0 0 0 0 0 0 1 2 2 1 1 2 3 3 3 3 3 2 0 0 1 1 1 1 2 2 2 2 1 1 0 0 0
4 3 1 0 0 0 0 0 0 0 0 0 0 0 0 0 0 0 1 1 0 0 1 2 2 4 5 6 5 4 4 4 4 2 1 1 1 1 1 0 0 0 0 1
5 5 2 0 0 0 0 0 0 0 0 0 0 0 0 0 0 0 0 0 0 0 1 1 1 3 6 8 8 8 9 10 8 4 2 2 3 2 1 1 1 1 1 2
6 7 4 1 0 0 0 0 0 0 0 0 0 0 0 0 0 0 0 0 0 0 1 2 2 4 8 11 12 12 14 14 12 8 5 5 5 4 3 3 2 2 3 4
4 6 4 1 0 0 0 0 0 0 0 0 0 0 0 0 1 1 2 1 1 1 3 3 5 8 13 17 18 18 17 16 14 11 8 6 6 6 5 4 3 3 3 4
1 2 1 0 0 0 0 0 0 0 0 0 0 0 1 2 3 5 5 4 3 3 5 8 11 15 20 24 25 23 19 15 12 10 7 5 5 7 6 5 3 3 3 3
0 0 0 0 0 0 0 0 0 0 1 1 1 0 1 2 5 6 7 8 8 8 10 15 20 24 26 28 28 25 19 14 10 9 8 7 7 8 7 5 4 3 2 3
0 0 0 0 0 0 0 0 0 0 1 2 2 1 1 1 2 5 9 13 15 14 14 19 24 27 28 27 26 23 18 13 10 10 11 11 9 8 6 5 4 4 3 3
0 0 0 0 0 0 0 0 0 1 1 1 2 2 1 0 1 3 10 17 18 16 16 18 21 25 27 25 23 20 16 12 10 11 12 12 10 6 5 5 5 5 3 2
0 0 0 0 0 0 0 0 0 1 0 0 1 1 1 0 1 5 12 18 18 14 13 16 18 21 23 22 19 17 15 12 10 10 11 10 7 5 5 5 5 4 3 2
0 0 0 0 0 0 0 0 0 0 0 0 1 1 0 0 2 6 13 18 17 13 11 12 15 16 16 15 14 13 13 11 9 8 8 6 4 4 4 4 4 3 2 1
0 0 0 0 0 0 0 0 0 0 0 1 2 3 1 0 2 6 11 15 15 12 9 9 12 12 11 11 10 10 9 9 8 8 6 3 2 3 3 3 3 2 1 0

GEFSCGP_con_probscp_138.txt.gz
Probability
0 0 0 0 0 0 0 0 0 0 0 0 1 4 8 12 15 19 21 22 24 28 30 32 35 36 35 35 35 36 35 32 30 26 22 19 13 8 6 4 3 1 0 0
0 0 0 0 0 0 0 0 0 0 0 0 0 3 7 11 16 21 21 19 20 24 26 27 31 33 33 31 30 30 29 27 24 22 21 18 12 6 3 2 1 1 0 0
0 0 0 0 0 0 0 0 0 0 0 0 0 2 6 12 20 23 21 16 15 19 22 22 24 27 28 27 26 25 26 24 23 22 20 16 10 4 2 2 1 1 0 0
0 0 0 0 0 0 0 0 0 0 0 0 1 3 6 13 21 25 22 17 15 17 20 20 19 20 22 24 24 24 25 25 25 23 19 14 9 5 4 3 2 1 0 0
0 0 0 0 0 0 0 0 0 0 0 0 1 2 4 11 19 22 21 17 15 16 17 17 17 18 19 20 20 22 24 25 24 21 18 13 8 5 4 3 3 2 0 0
0 0 0 0 0 0 0 0 0 0 0 0 0 1 3 8 14 17 16 14 12 12 12 14 17 18 18 18 19 21 25 26 24 21 17 13 8 5 4 3 2 1 0 0
0 0 0 0 0 0 0 0 0 0 0 0 0 0 2 5 9 11 11 9 7 7 9 12 15 16 16 17 20 24 25 24 21 19 16 12 8 6 3 2 1 0 0 0
0 0 0 0 0 0 0 0 0 0 0 0 0 0 1 3 5 7 8 6 5 5 7 10 12 12 12 14 18 22 23 19 16 16 15 13 9 5 3 2 1 0 0 0
0 0 0 0 0 0 0 0 0 0 0 0 0 1 2 2 2 4 6 6 4 3 5 9 10 10 9 10 13 16 17 15 12 12 13 12 9 5 3 2 1 0 0 1
0 0 0 0 0 0 0 0 1 1 0 0 0 1 2 2 1 2 4 4 3 2 4 8 9 9 9 9 10 12 12 11 10 10 10 9 7 5 4 2 1 0 1 2
1 1 1 0 0 0 0 0 1 2 1 0 0 1 1 1 1 1 2 1 1 2 3 6 9 10 12 12 12 11 10 9 9 9 9 8 6 5 4 3 2 1 1 2
2 3 3 1 0 0 0 0 1 2 1 0 0 0 0 0 0 1 1 1 0 1 2 5 10 13 15 16 16 13 10 8 8 8 8 8 6 4 3 3 3 3 3 3
3 5 4 2 1 0 0 0 1 2 1 0 0 0 0 0 1 2 2 1 0 0 2 7 13 18 19 19 18 16 12 8 7 7 7 6 4 3 2 3 4 4 3 3
4 4 3 2 1 0 0 0 0 0 0 0 0 0 0 0 1 2 2 1 0 1 3 11 21 25 24 23 22 20 16 12 11 11 9 5 3 2 2 3 4 4 3 2
4 2 1 0 0 0 0 0 0 0 0 0 1 1 1 0 0 1 2 2 3 4 6 16 30 35 33 30 29 28 25 22 20 19 15 10 7 7 6 4 3 2 1 1
5 5 2 0 0 0 0 1 1 0 0 1 3 5 4 1 1 2 4 6 7 9 11 20 36 47 48 44 42 42 40 37 32 27 23 19 15 13 11 7 4 2 1 1
8 9 6 2 1 0 0 1 2 2 3 5 7 8 6 3 2 4 8 11 13 14 17 26 42 56 60 58 57 56 52 46 40 33 27 24 21 17 13 9 6 4 3 3
9 11 9 4 2 1 0 1 2 4 7 9 9 8 6 4 4 7 13 17 17 19 26 35 47 58 63 64 64 61 54 47 42 36 29 26 23 19 15 13 12 13 11 10
8 10 9 5 2 1 0 1 1 4 8 8 7 7 6 6 8 13 19 21 21 24 33 41 46 53 62 66 67 63 55 48 43 37 30 27 25 23 21 19 21 24 22 19
5 6 6 4 2 0 1 2 2 3 7 8 8 8 8 9 12 18 23 22 22 29 39 45 45 51 64 73 73 70 63 54 48 42 36 33 32 31 30 30 32 32 27 23
5 5 4 3 2 1 2 3 5 8 12 14 13 12 12 13 17 21 23 23 27 35 44 52 56 62 74 80 79 76 71 65 58 51 45 41 39 37 37 39 41 36 29 24
6 5 4 3 4 4 4 5 8 15 19 18 17 16 16 17 21 24 25 29 36 41 46 57 68 76 81 82 81 78 76 72 66 59 53 50 46 38 35 40 43 39 32 27
5 5 4 5 7 8 6 5 9 15 20 19 17 18 18 20 25 29 32 37 43 45 48 57 69 78 80 80 79 77 75 74 70 65 60 57 51 41 36 37 38 35 30 24
4 4 5 6 7 7 5 5 8 11 13 14 13 13 14 19 25 30 35 40 45 51 56 62 69 74 75 75 75 74 74 73 71 68 65 61 54 45 39 35 31 27 21 15
2 3 4 5 5 4 3 5 8 8 7 6 7 7 10 17 24 29 35 41 47 54 60 64 67 70 72 72 71 72 73 72 70 68 64 58 50 42 36 31 24 17 11 8
1 2 2 4 4 3 3 5 7 6 4 3 4 6 9 16 24 30 35 44 52 55 58 61 63 66 71 71 69 71 73 71 69 68 63 53 45 38 31 25 18 10 5 3

GEFSCGP_con_probscp_144.txt.gz
Probability
0 0 0 0 0 0 0 0 0 0 1 3 6 10 15 17 21 29 35 34 32 30 27 23 18 16 16 18 20 21 19 16 14 14 12 6 3 3 3 3 2 1 0 0
0 0 0 0 0 0 0 0 0 0 1 3 6 9 14 16 19 25 30 30 29 27 24 21 18 15 15 17 19 20 20 18 15 13 9 6 3 3 3 2 1 0 0 0
0 0 0 0 0 0 0 0 0 0 0 2 4 6 9 11 15 20 23 23 23 22 20 19 15 12 13 15 17 19 19 19 16 11 8 5 3 2 1 1 0 0 0 0
0 0 0 0 0 0 0 0 0 0 0 0 1 2 3 6 10 13 15 16 17 18 18 16 13 10 11 13 15 17 18 18 14 10 8 5 2 1 0 0 0 0 0 0
0 0 0 0 0 0 0 0 0 0 0 0 0 0 1 3 5 6 8 12 15 17 16 15 13 10 9 11 13 15 15 15 13 10 7 4 1 0 0 0 0 0 0 0
0 0 0 0 0 0 0 0 0 0 0 0 0 0 0 1 2 3 5 9 14 14 13 13 12 10 9 9 10 11 11 12 11 9 5 2 1 0 0 0 0 0 0 0
0 0 0 0 0 0 0 0 0 0 0 0 0 0 0 1 1 3 4 7 9 9 9 10 11 10 9 8 7 7 8 9 10 8 4 1 0 0 0 0 0 0 0 0
0 0 0 0 0 0 0 0 0 0 0 0 0 0 0 1 2 3 4 5 5 5 6 8 8 8 9 8 6 4 5 7 8 7 3 1 0 0 0 0 0 0 0 0
0 0 0 0 0 0 0 0 0 0 0 0 0 0 0 1 1 1 2 2 2 3 5 6 6 6 7 8 6 4 5 7 7 5 3 1 0 0 0 0 0 0 0 0
0 0 0 0 0 0 0 0 0 0 0 0 0 0 0 0 0 0 0 0 1 3 6 7 6 4 5 6 6 6 6 6 6 4 3 1 0 0 0 0 0 0 0 0
0 0 0 0 0 0 0 0 0 0 0 0 0 0 0 0 0 0 0 0 0 2 6 9 7 4 3 4 5 6 6 5 4 3 2 1 0 0 0 0 0 0 0 0
0 0 0 0 0 0 0 0 0 0 0 0 0 0 0 0 0 0 0 0 0 1 4 7 7 4 3 3 5 7 6 4 3 3 3 1 0 0 0 0 0 0 0 0
0 0 0 0 0 0 0 0 0 0 0 0 0 0 0 0 0 0 0 0 0 0 1 4 5 5 4 4 6 8 6 4 3 3 3 2 1 0 0 0 0 0 0 0
0 0 0 0 0 0 0 0 0 0 0 0 0 0 0 0 0 0 0 0 1 1 0 2 5 7 7 7 8 8 7 5 4 3 3 2 1 1 0 0 0 0 0 0
0 0 0 0 0 0 0 0 0 0 0 0 0 0 0 1 1 1 0 0 1 2 1 2 6 10 11 10 9 8 8 7 5 3 2 1 0 0 0 0 0 0 0 0
0 0 0 0 1 0 0 1 1 1 1 1 1 0 0 1 2 2 1 0 2 3 3 4 8 12 14 13 11 10 10 9 6 3 1 0 0 0 0 0 0 0 0 0
0 0 0 0 0 0 0 1 3 4 4 3 3 1 0 1 1 1 1 1 2 4 5 6 9 12 14 14 13 11 11 11 7 3 1 0 0 0 0 0 0 0 0 0
0 0 0 0 0 0 0 1 3 4 4 4 4 3 1 0 0 0 0 1 3 5 6 7 10 12 14 15 14 12 11 10 6 2 1 1 1 1 1 0 0 0 0 0
0 0 0 0 0 0 0 0 1 1 2 2 3 3 1 1 0 0 1 2 3 4 4 7 11 15 16 16 15 13 11 9 6 3 3 3 3 3 2 1 0 1 1 1
0 0 0 0 0 0 0 0 0 0 0 0 1 2 2 1 0 0 1 3 5 5 5 8 13 17 18 18 18 17 13 11 11 10 8 7 6 4 3 2 2 2 2 2
0 0 0 0 0 0 0 0 0 0 0 0 1 2 2 1 1 1 1 3 6 7 7 9 14 18 20 21 21 20 18 17 18 18 15 11 8 6 6 5 5 4 3 3
0 0 0 0 0 0 0 0 0 0 0 0 1 2 2 2 3 3 3 3 4 5 7 10 14 18 21 21 20 21 21 20 22 22 17 12 8 7 7 6 5 5 4 4
0 0 0 0 0 0 0 0 0 0 0 0 1 2 3 4 5 6 5 3 2 2 4 8 13 17 18 18 18 21 22 22 23 22 16 10 8 6 5 4 4 4 4 4
0 0 0 0 0 0 0 0 0 1 2 2 2 3 4 5 6 6 5 3 2 3 5 8 13 15 15 14 17 20 21 21 22 19 14 10 8 5 4 3 3 4 5 5
0 0 0 0 0 0 0 0 0 1 3 3 3 4 4 4 5 4 2 1 2 4 7 9 11 13 12 12 14 17 19 19 18 15 12 10 8 6 4 3 3 4 5 5
0 0 0 0 0 0 0 0 1 2 3 2 2 3 3 3 3 2 1 1 2 4 7 8 10 12 12 11 12 15 16 16 15 12 11 10 8 6 4 2 1 3 4 3

GEFSCGP_con_probscp_150.txt.gz
Probability
0 0 0 0 0 0 0 0 0 0 0 0 1 3 5 11 16 22 28 31 29 26 23 22 20 16 12 9 9 9 7 6 6 4 3 2 1 0 0 0 0 0 0 0
0 0 0 0 0 0 0 0 0 0 0 0 1 3 5 9 13 17 25 29 28 25 23 21 17 15 12 10 9 9 7 5 4 4 4 4 2 1 1 1 0 0 0 0
0 0 0 0 0 0 0 0 0 0 0 0 1 1 3 5 7 11 18 24 25 23 21 18 15 12 11 10 9 8 5 4 3 4 6 5 3 2 2 2 1 0 0 0
0 0 0 0 0 0 0 0 0 0 0 0 0 0 1 1 2 6 12 18 20 20 18 16 14 11 10 8 8 6 5 3 3 4 6 6 4 3 3 3 2 0 0 0
0 0 0 0 0 0 0 0 0 0 0 0 0 0 0 0 0 2 6 10 13 15 14 12 12 11 8 7 7 6 5 3 3 5 6 6 4 3 2 2 1 0 0 0
0 0 0 0 0 0 0 0 0 0 0 0 0 0 0 0 0 1 2 4 6 8 9 8 9 9 8 6 6 6 6 5 5 6 6 6 4 2 1 1 0 0 0 0
0 0 0 0 0 0 0 0 0 0 0 0 0 0 0 0 0 0 1 2 3 4 5 6 7 8 8 7 6 6 6 6 6 6 6 5 4 1 0 0 0 0 0 0
0 0 0 0 0 0 0 0 0 0 0 0 0 0 0 0 0 0 1 2 1 1 2 4 6 9 8 6 5 5 5 5 6 6 6 4 3 2 1 0 0 0 0 0
0 0 0 0 0 0 0 0 0 0 0 0 0 0 0 0 0 0 2 2 1 0 1 2 5 7 6 3 2 3 4 5 6 6 6 4 3 2 1 0 0 0 0 0
0 0 0 0 0 0 0 0 0 0 0 0 0 0 0 0 0 0 1 1 1 0 0 1 2 4 3 1 0 1 2 4 5 5 6 5 4 1 0 0 0 0 0 0
0 0 0 0 0 0 0 0 0 0 0 0 0 0 0 0 0 0 0 0 0 0 0 0 1 1 1 1 0 0 1 3 4 5 6 6 4 2 0 0 0 0 0 0
0 0 0 0 0 0 0 0 0 0 0 0 0 0 0 0 0 0 0 0 0 0 0 0 1 2 2 2 1 0 1 1 3 4 6 6 4 2 1 0 0 0 0 0
0 0 0 0 0 0 0 0 0 0 0 0 0 0 0 0 0 0 0 0 0 0 0 0 1 2 3 2 1 0 0 0 2 4 5 5 4 3 2 1 0 0 0 0
0 0 0 0 0 0 0 0 0 0 0 0 0 0 0 0 0 0 0 0 0 0 0 0 1 1 1 2 2 1 0 1 2 3 4 4 3 3 3 2 1 0 0 0
0 0 0 0 0 0 0 0 0 0 0 0 0 0 0 0 0 0 0 0 0 0 0 0 0 1 1 3 3 2 2 2 3 4 4 3 3 4 3 2 1 0 0 0
0 0 0 0 0 0 1 1 1 0 0 0 0 0 0 0 0 0 0 0 0 0 0 0 0 0 2 4 5 4 4 5 5 6 5 4 4 4 3 1 0 0 0 0
0 0 0 0 0 0 1 1 1 1 1 1 1 1 0 0 0 0 0 0 0 0 0 0 0 0 1 3 5 5 6 7 7 7 6 6 5 3 1 0 0 0 0 0
0 0 0 0 0 1 1 0 1 2 2 2 2 1 0 0 0 0 0 0 0 0 0 0 0 0 0 1 3 5 7 9 9 7 6 5 4 2 1 0 0 0 0 0
0 0 0 0 1 1 1 0 0 1 1 1 1 1 0 0 0 0 0 0 0 0 0 0 0 0 0 1 3 5 7 9 9 8 6 4 2 1 0 0 0 0 0 0
0 0 0 0 1 1 1 0 0 0 0 0 0 0 0 0 0 0 0 0 0 0 0 0 0 0 0 1 5 6 7 7 8 6 4 2 1 0 0 0 0 0 0 0
0 0 0 0 0 0 0 0 0 0 0 0 0 0 0 0 0 0 0 0 0 0 0 0 0 0 0 1 4 5 4 4 4 3 2 1 0 0 0 0 0 0 0 0
0 0 0 0 0 0 0 0 0 0 0 0 0 0 0 0 0 0 0 0 0 0 0 0 0 0 0 1 2 2 1 1 1 1 1 0 0 0 0 0 0 0 0 0
0 0 0 0 0 0 0 0 0 0 0 0 0 0 0 0 0 0 0 0 0 0 0 0 0 0 0 0 0 0 0 0 0 0 0 0 0 0 0 0 0 0 0 0
0 0 0 0 0 0 0 0 0 0 0 0 0 0 0 0 0 0 0 0 0 0 0 0 0 0 0 0 0 0 0 0 0 0 0 0 0 0 0 0 0 0 0 0
0 0 0 0 0 0 0 0 0 0 0 0 0 0 0 0 0 0 0 0 0 0 0 0 0 0 0 0 0 1 1 0 0 0 0 0 0 0 0 0 0 0 0 0
0 0 0 0 0 0 0 0 0 0 0 0 0 0 0 0 0 0 0 0 0 0 0 0 0 0 0 0 1 2 2 1 0 0 0 0 0 0 0 0 0 0 0 0

GEFSCGP_con_probscp_156.txt.gz
Probability
0 0 0 0 0 0 0 0 0 0 0 0 0 1 2 1 3 7 14 21 27 31 32 29 27 29 30 29 25 23 24 29 35 35 32 29 22 13 8 6 5 2 1 0
0 0 0 0 0 0 0 0 0 0 0 0 0 1 2 1 2 6 13 18 23 29 31 29 29 30 31 30 28 26 28 33 37 39 38 33 26 18 12 9 7 4 1 0
0 0 0 0 0 0 0 0 0 0 0 0 0 1 1 1 1 4 9 13 17 24 28 29 30 31 30 29 27 27 30 35 39 41 40 33 27 21 15 11 9 7 3 1
0 0 0 0 0 0 0 0 0 0 0 0 0 0 0 0 0 2 6 9 13 19 24 28 30 29 27 24 22 23 28 32 35 37 34 28 23 20 15 12 12 10 6 4
0 0 0 0 0 0 0 0 0 0 0 0 0 0 0 0 0 2 5 7 10 15 20 25 28 28 24 20 17 18 22 25 28 29 28 24 21 20 18 15 15 13 9 6
0 0 0 0 0 0 0 0 0 0 0 0 0 0 0 0 0 1 4 5 7 11 16 21 25 27 24 19 16 17 18 19 21 24 25 23 21 21 20 17 16 14 10 8
0 0 0 0 0 0 0 0 0 0 0 0 0 0 0 0 0 1 4 6 6 8 12 17 21 24 24 20 18 18 18 16 18 21 23 22 20 19 19 18 16 15 11 8
0 0 0 0 0 0 0 0 0 0 0 0 0 0 0 0 0 1 4 7 7 6 9 13 16 19 20 18 17 18 17 16 15 17 19 19 17 18 19 19 17 15 12 9
0 0 0 0 0 0 0 0 0 0 0 0 0 0 0 0 0 1 5 8 7 5 5 8 10 12 13 13 14 15 14 14 14 15 16 15 15 17 18 18 18 15 12 8
0 0 0 0 0 0 0 0 0 0 0 0 0 0 0 0 1 3 6 9 8 5 3 4 4 5 6 9 11 12 11 11 12 12 12 11 14 16 17 17 17 15 11 8
0 0 0 0 0 0 0 0 0 0 0 0 0 0 0 0 1 2 5 7 7 5 3 1 1 1 3 6 9 10 9 7 7 8 8 9 12 14 14 14 14 12 10 8
0 0 0 0 0 1 0 0 0 0 0 0 0 0 0 0 0 1 2 4 6 6 4 2 1 1 2 4 7 7 6 4 3 3 4 7 10 12 12 11 11 10 9 8
0 0 0 0 0 0 0 0 0 0 0 0 0 0 0 0 0 0 1 3 5 6 5 5 3 3 2 3 5 5 4 3 1 1 2 5 8 10 11 11 10 10 9 9
0 0 0 0 0 0 0 0 0 0 0 0 0 0 0 0 0 0 0 2 4 6 8 9 7 6 4 3 3 4 3 2 1 0 1 4 8 10 11 10 10 10 9 9
0 0 0 0 0 0 0 0 0 0 0 0 0 1 1 0 0 0 0 2 5 7 10 11 9 8 7 5 5 5 4 3 3 2 2 4 8 10 11 10 9 9 9 9
0 0 0 0 0 0 0 0 0 0 1 1 1 1 1 1 0 1 1 3 5 7 9 10 9 9 9 9 9 8 8 7 6 5 3 4 6 8 9 10 9 8 8 8
1 0 0 0 0 0 0 0 0 0 1 2 2 2 2 2 2 2 4 4 4 5 8 9 9 9 9 10 12 11 11 11 10 8 6 5 5 7 8 9 9 9 8 7
2 1 0 0 0 0 0 0 0 0 1 2 4 4 3 4 4 4 5 5 4 5 7 9 9 8 9 9 11 12 13 13 12 11 10 9 9 9 9 9 11 12 10 8
4 2 0 0 0 0 0 1 1 1 2 2 3 3 4 5 4 5 6 7 7 6 8 10 10 8 10 11 13 14 14 13 13 13 12 12 13 13 12 13 15 16 13 10
2 1 0 0 0 0 1 1 1 1 2 2 2 2 3 5 6 6 9 11 11 9 10 12 12 12 15 17 20 20 18 15 14 14 14 14 14 14 14 16 18 20 19 16
1 0 0 0 0 1 1 1 1 3 4 4 3 3 4 7 10 9 10 14 14 11 12 14 16 19 24 28 29 28 24 20 18 18 18 17 17 16 16 21 25 26 24 22
0 0 0 0 0 1 3 3 3 5 5 5 5 4 6 9 11 11 12 15 14 11 11 13 18 24 31 35 36 34 30 25 22 21 21 20 21 19 21 28 33 32 28 25
0 0 0 0 1 2 3 4 4 4 3 3 3 4 6 9 11 12 13 15 14 10 9 12 17 24 30 35 37 36 34 31 27 25 24 24 25 25 26 32 35 32 28 23
0 0 0 1 1 1 1 2 2 1 1 1 1 2 4 6 9 11 13 15 15 13 13 15 18 23 29 33 34 34 34 34 32 30 30 31 29 28 30 32 31 26 21 18
0 0 0 0 0 0 0 1 1 0 0 0 0 1 2 3 4 8 11 14 16 17 18 19 21 25 30 33 34 35 36 37 35 34 34 34 31 30 32 31 25 17 12 10
0 0 0 0 0 0 1 2 2 1 0 0 0 1 1 1 2 5 10 14 18 20 20 20 23 27 30 32 35 39 41 41 38 35 33 32 31 31 32 30 21 11 5 5

GEFSCGP_con_probscp_162.txt.gz
Probability
0 0 0 0 0 0 0 0 0 0 0 0 0 1 5 8 10 18 30 42 54 62 68 68 64 60 58 58 59 58 57 56 53 46 39 38 39 38 35 29 24 21 17 13
0 0 0 0 0 0 0 0 0 0 0 0 0 1 4 7 10 18 28 38 50 61 66 66 62 59 56 55 56 55 53 51 49 45 40 39 40 40 37 30 25 21 17 13
0 0 0 0 0 0 0 0 0 0 0 0 0 2 5 8 12 17 23 31 43 56 63 62 60 57 55 54 54 52 50 49 48 44 41 40 41 40 36 31 25 20 17 15
0 0 0 0 0 0 0 0 0 0 0 0 0 3 9 12 14 16 20 27 37 49 56 56 56 56 54 53 51 49 49 50 49 45 41 39 38 36 34 31 25 21 19 17
0 0 0 0 0 0 0 0 0 0 0 0 0 2 7 12 14 16 20 26 32 39 46 48 50 53 52 49 46 45 46 48 47 44 40 38 35 33 33 30 27 24 21 19
0 0 0 0 0 0 0 0 0 0 0 0 0 1 4 8 12 16 21 25 27 30 37 41 45 49 49 46 43 41 42 44 45 42 39 36 35 34 33 31 28 25 22 19
0 0 0 0 0 0 0 0 0 0 0 0 0 1 3 6 9 13 18 22 24 26 33 37 39 44 46 44 42 41 41 42 42 41 38 36 35 35 33 31 28 25 21 18
0 0 0 0 0 0 0 0 0 0 0 0 0 1 4 7 8 10 15 19 22 25 29 33 34 37 40 41 41 40 40 39 39 39 38 37 36 33 32 31 28 26 23 19
0 0 0 0 0 0 0 0 0 0 0 0 0 1 5 10 9 10 14 18 20 20 22 26 29 31 35 38 38 37 35 35 34 34 35 35 33 31 30 30 29 28 26 21
0 0 0 0 0 0 0 0 1 0 0 0 0 1 6 11 11 10 13 16 18 18 17 20 25 30 33 35 34 32 31 30 28 26 26 27 27 28 28 28 28 30 29 26
0 0 0 0 0 0 0 0 0 0 0 0 0 1 4 8 9 8 10 14 18 18 15 17 24 29 33 33 30 29 28 28 24 21 19 20 22 24 25 26 28 29 30 29
0 0 0 0 0 0 0 0 0 0 0 0 0 0 2 4 6 6 8 13 17 17 15 18 24 29 32 30 27 25 25 25 22 19 17 18 20 21 20 22 26 27 27 28
1 0 0 0 0 0 0 0 0 0 0 0 0 0 2 4 6 6 9 12 14 13 15 21 28 32 31 28 25 22 20 19 17 15 14 15 16 16 16 19 24 26 25 24
1 1 0 0 0 0 0 0 0 0 0 0 0 1 4 6 7 9 12 14 12 12 16 25 33 37 35 29 24 21 17 14 13 12 12 12 13 12 13 18 25 27 23 20
1 1 0 0 0 0 0 0 0 0 0 0 0 2 6 8 9 11 14 14 11 10 15 26 37 42 38 30 23 20 19 16 15 15 14 15 15 13 14 18 25 26 22 18
2 1 0 0 0 0 0 0 0 0 0 0 1 4 8 11 11 12 14 14 12 11 14 24 37 45 42 34 25 22 24 25 23 20 20 22 22 19 18 20 24 25 22 19
4 3 2 0 0 0 0 0 0 1 2 2 3 7 11 13 13 13 14 16 18 19 19 24 36 46 46 39 31 26 26 28 26 24 25 27 27 24 21 21 24 25 25 24
4 5 3 1 0 0 1 1 0 1 3 5 8 11 14 15 16 16 18 22 26 29 29 30 35 42 44 41 34 28 26 26 25 24 25 27 26 24 22 22 25 30 32 32
4 4 3 0 0 0 1 1 0 1 5 9 13 15 15 15 17 19 23 28 32 34 35 35 33 37 40 41 38 33 27 26 24 22 24 25 25 24 23 25 30 36 37 37
5 4 2 0 0 0 1 2 1 3 9 15 18 18 17 17 18 20 22 26 30 31 32 32 30 34 40 44 44 39 32 29 26 24 24 28 31 31 31 33 38 40 39 36
4 4 1 0 0 0 2 3 6 11 18 23 23 21 21 21 22 21 20 20 23 25 26 29 31 35 45 51 50 43 36 34 33 29 28 33 38 37 38 43 46 44 39 34
2 1 1 1 2 3 5 7 14 23 26 25 23 21 20 21 21 21 19 16 17 19 22 29 34 39 47 55 55 48 43 42 41 36 35 40 43 39 41 49 50 46 41 37
1 1 4 6 8 10 10 12 17 23 22 18 15 13 14 16 16 17 15 12 13 15 20 29 36 40 44 51 54 53 50 50 47 42 40 44 45 42 44 50 49 44 39 35
1 3 8 12 12 13 13 11 12 13 12 9 7 7 9 12 13 12 11 9 12 17 21 28 35 39 40 43 46 49 52 53 51 47 44 45 45 44 45 46 43 37 32 29
2 4 8 12 12 11 10 8 6 7 7 5 4 5 6 8 9 9 8 8 12 18 24 28 34 39 40 40 41 45 49 52 51 49 47 45 43 41 41 39 33 25 20 19
3 3 5 8 11 11 9 6 5 6 5 4 5 5 4 4 5 6 5 7 11 18 25 30 34 40 42 42 43 45 48 50 50 50 48 45 42 39 37 35 26 16 12 11

GEFSCGP_con_probscp_168.txt.gz
Probability
0 0 0 0 0 0 0 0 0 0 0 0 0 2 8 16 24 32 40 45 45 45 47 47 46 46 43 41 40 37 32 23 13 9 9 7 4 3 3 3 4 4 5 5
0 0 0 0 0 0 0 0 0 0 0 0 1 3 10 17 23 31 42 48 48 47 48 49 49 48 45 42 41 39 36 26 14 8 8 7 4 3 3 3 4 5 5 5
0 0 0 0 0 0 0 0 0 0 0 0 1 3 9 16 22 31 44 51 50 48 49 50 50 49 47 44 43 42 38 30 18 10 8 7 5 4 4 3 4 4 4 4
0 0 0 0 0 0 0 0 0 0 0 0 0 1 6 13 21 31 44 51 51 48 46 47 48 48 46 44 44 42 38 32 24 15 10 9 8 7 5 4 3 2 1 1
0 0 0 0 0 0 0 0 0 0 0 0 0 0 3 10 18 27 38 45 50 49 46 46 47 47 45 42 41 39 36 33 28 21 15 12 11 9 7 5 3 2 1 1
0 0 0 0 0 0 0 0 0 0 0 0 0 0 2 7 13 20 29 38 45 47 46 45 46 46 43 39 37 36 35 34 30 25 19 15 13 11 8 7 5 4 2 2
0 0 0 0 0 0 0 0 0 0 0 0 0 0 2 5 9 15 23 32 38 42 44 44 43 42 39 36 34 34 34 34 31 26 22 17 14 12 9 7 6 5 4 3
0 0 0 0 0 0 0 0 0 0 0 0 0 1 3 6 8 13 21 29 34 38 41 40 37 35 34 33 34 34 33 33 32 28 24 19 15 12 9 7 6 5 4 3
0 0 0 0 0 0 0 0 0 0 0 0 0 1 5 7 8 11 18 24 29 33 35 33 29 28 30 31 32 32 31 31 31 29 25 20 16 12 9 7 6 6 5 4
0 0 0 0 0 0 0 0 0 0 0 0 0 1 4 7 8 9 13 17 20 24 26 25 24 25 28 30 31 32 30 28 28 27 25 22 17 13 10 9 8 7 6 4
0 0 0 0 0 0 0 0 0 0 0 0 0 0 2 6 8 8 9 12 15 18 20 22 22 23 25 28 30 30 27 25 23 23 24 22 18 13 11 10 10 7 5 4
0 0 0 0 0 0 0 0 0 0 0 0 0 0 2 5 7 6 7 11 15 18 21 22 21 20 21 24 26 26 23 21 19 19 20 19 17 13 11 10 9 6 3 3
0 0 0 0 0 0 0 0 0 0 0 0 0 0 2 5 6 5 6 9 12 16 20 21 20 18 17 19 21 20 19 17 17 16 15 15 14 12 10 10 9 6 4 2
0 0 0 0 0 0 0 0 0 0 0 0 0 0 3 5 6 5 5 6 8 12 15 15 16 16 15 15 17 18 17 16 15 14 12 11 12 12 11 10 9 7 4 3
0 0 0 0 0 0 0 0 1 1 0 0 0 1 2 4 5 5 6 6 8 11 11 10 11 13 14 13 15 16 15 14 13 12 9 9 10 12 11 10 8 6 4 3
0 0 0 0 0 0 0 1 2 2 1 0 0 2 2 3 4 6 8 9 10 10 10 8 8 12 14 13 13 13 12 11 11 10 8 8 9 10 10 9 6 4 2 1
0 0 0 0 1 0 0 1 3 3 2 1 1 3 5 5 5 7 10 11 11 11 9 7 7 10 13 14 13 11 11 10 8 8 8 9 8 8 8 8 5 2 1 0
0 0 0 0 0 0 1 2 3 4 4 6 6 6 7 9 9 10 11 11 12 13 12 7 6 9 12 13 13 12 10 8 7 7 8 8 8 8 8 7 5 3 1 1
1 1 0 0 0 0 2 3 4 4 7 11 11 10 10 12 14 13 10 9 12 14 13 9 8 10 11 11 13 12 8 6 5 6 7 7 7 7 7 6 6 5 4 3
0 0 0 0 0 0 1 2 2 3 7 11 11 9 9 12 13 11 8 8 11 13 12 11 12 12 11 9 10 10 7 4 4 5 6 7 7 8 8 7 7 6 6 5
0 0 0 0 0 0 1 1 1 2 5 8 8 6 6 8 8 8 8 9 11 12 11 11 13 14 12 9 8 8 6 5 4 4 5 6 8 8 8 8 7 7 7 7
1 0 0 0 0 0 1 2 1 1 4 5 5 4 4 7 9 9 9 8 8 9 10 11 13 13 13 12 9 7 6 5 5 4 3 4 5 6 7 8 8 9 9 10
1 0 0 0 1 1 1 2 2 3 4 4 3 3 4 7 9 9 7 6 6 6 8 9 10 10 12 13 11 9 8 8 7 5 4 4 4 5 6 8 9 10 11 11
1 0 0 0 1 2 2 2 3 4 5 4 3 4 3 4 5 5 5 5 6 6 6 7 8 8 8 10 11 12 11 11 10 8 7 6 6 7 7 8 8 8 9 9
0 0 0 0 1 1 1 2 3 4 4 3 3 3 2 1 1 1 2 4 5 6 6 6 5 5 4 6 10 12 13 14 13 11 9 8 8 7 6 5 5 5 5 5
0 0 0 0 0 1 2 2 3 3 2 2 2 2 1 0 0 0 1 2 4 6 6 5 4 4 3 5 7 10 12 15 16 14 10 8 7 6 5 4 3 4 4 4